Overview Statistics Trail Chart Weather Telemetry Raw packets
 

This is the latest recevied weather packets stored in our database for station/object K3RUP-1. If no packets are shown the sender has not sent any weather packets the latest 10 day(s).

<< 12 13 14 15 16 17 18 >>
Time Temp. Humidity Pressure Rain* Wind** Luminosity Snow
1788608969 22.78° C 98% 1010.6 hPa 0 mm - 31 W/m² -
1788608668 22.78° C 98% 1010.6 hPa 0 mm - 24 W/m² -
1788608362 22.78° C 99% 1010.6 hPa 0 mm - 19 W/m² -
1788608057 22.78° C 99% 1010.6 hPa 0 mm - 15 W/m² -
1788607753 22.78° C 99% 1010.7 hPa 0 mm - 15 W/m² -
1788607448 22.22° C 99% 1010.4 hPa 0 mm - 15 W/m² -
1788607143 22.22° C 99% 1010.2 hPa 0 mm - 19 W/m² -
1788606842 22.22° C 98% 1010.3 hPa 0 mm - 17 W/m² -
1788606536 22.22° C 98% 1010.3 hPa 0 mm - 11 W/m² -
1788606230 22.22° C 98% 1010.3 hPa 0 mm - 10 W/m² -
1788605926 22.22° C 98% 1010 hPa 0 mm - 6 W/m² -
1788605625 22.22° C 98% 1010.3 hPa 0 mm - 5 W/m² -
1788605319 22.22° C 98% 1010.1 hPa 0 mm - 2 W/m² -
1788605016 22.22° C 98% 1010.1 hPa 0 mm - 1 W/m² -
1788604715 22.22° C 98% 1010 hPa 0 mm - 0 W/m² -
1788604411 22.22° C 98% 1009.9 hPa 0 mm - 0 W/m² -
1788604107 22.22° C 98% 1009.9 hPa 0 mm - 0 W/m² -
1788603803 22.22° C 98% 1010 hPa 0 mm - 0 W/m² -
1788603503 22.22° C 97% 1009.9 hPa 0 mm - 0 W/m² -
1788603201 22.22° C 97% 1009.8 hPa 0 mm - 0 W/m² -
1788602896 22.22° C 97% 1009.8 hPa 0 mm - 0 W/m² -
1788602592 22.22° C 97% 1009.7 hPa 0 mm - 0 W/m² -
1788602291 22.22° C 97% 1009.9 hPa 0 mm - 0 W/m² -
1788601985 22.22° C 97% 1009.6 hPa 0 mm - 0 W/m² -
1788601680 22.78° C 97% 1009.6 hPa 0 mm - 0 W/m² -

* Rain latest hour (hover to see other rain measurements)
** Current wind speed in m/s (hover to see current wind gust speed)